User: anonymous   Login
Location: Montbazon
(47.2835°N, 0.6999°E)
Time: 14:17:47
(UTC+00:00)
Language:

Cosmos 2360 Rocket - Orbit

View from above orbital plane
View from above orbital plane
View from above satellite
View from above satellite

Ground track
Ground track

The orbit is defined by the following mean orbital elements,

1 25407U          26022.16717142 +.00000000 +00000-0 +19814-3 0 00008
2 25407  71.0112 279.4105 0005196  99.7364 260.4347 14.16184912    02
Epoch (UTC): 22 January 2026 04:00:43
Eccentricity: 0.0005196
inclination: 71.0112°
perigee height: 835 km
apogee height: 842 km
right ascension of ascending node: 279.4105°
argument of perigee: 99.7364°
revolutions per day: 14.16184912
mean anomaly at epoch: 260.4347°

The dashed part of the orbit path shows where the satellite is in the earth's shadow,  

DLR